• In Romania
  • List of Countries
  • For 7 days
  • Water Temperature
  • Satellite Maps
  • Weather Map
  • Weather Widgets
  • user-avatar
    Login

    Hourly Weather Ondjiwa

    Today, 18 January, Thursday

    Time Temperature Precipitation Wind Pressure Humidity
    00:00 +28°C° 0.1 mm 4 mps 666 mmHg 48%
    01:00 +27°C° 0 mm 3 mps 666 mmHg 52%
    02:00 +26°C° 0.1 mm 3 mps 666 mmHg 56%
    03:00 +26°C° 0.1 mm 3 mps 666 mmHg 60%
    04:00 +25°C° 0.1 mm 3 mps 666 mmHg 64%
    05:00 +25°C° 0.1 mm 2 mps 666 mmHg 64%
    06:00 +25°C° 0.1 mm 2 mps 666 mmHg 63%
    07:00 +26°C° 0 mm 2 mps 667 mmHg 63%
    08:00 +27°C° 0 mm 2 mps 667 mmHg 56%
    09:00 +29°C° 0 mm 2 mps 667 mmHg 48%
    10:00 +31°C° 0 mm 1 mps 668 mmHg 40%
    11:00 +32°C° 0 mm 2 mps 667 mmHg 37%
    12:00 +34°C° 0 mm 2 mps 667 mmHg 34%
    13:00 +35°C° 0 mm 3 mps 667 mmHg 33%
    14:00 +34°C° 0 mm 4 mps 667 mmHg 33%
    15:00 +34°C° 0 mm 4 mps 666 mmHg 33%
    16:00 +34°C° 0 mm 4 mps 666 mmHg 34%
    17:00 +33°C° 0 mm 3 mps 665 mmHg 36%
    18:00 +31°C° 0 mm 2 mps 665 mmHg 38%
    19:00 +30°C° 0 mm 2 mps 665 mmHg 41%
    20:00 +29°C° 0 mm 2 mps 665 mmHg 43%
    21:00 +28°C° 0 mm 2 mps 666 mmHg 44%
    22:00 +28°C° 0 mm 2 mps 666 mmHg 46%
    23:00 +27°C° 0 mm 1 mps 666 mmHg 47%

    Tomorrow, 19 January, Friday

    Time Temperature Precipitation Wind Pressure Humidity
    00:00 +27°C° 0 mm 1 mps 666 mmHg 49%
    01:00 +26°C° 0 mm 1 mps 666 mmHg 50%
    02:00 +26°C° 0.1 mm 1 mps 666 mmHg 51%
    03:00 +26°C° 0.1 mm 1 mps 665 mmHg 52%
    04:00 +24°C° 0.1 mm 0 mps 665 mmHg 53%
    05:00 +26°C° 0.2 mm 1 mps 666 mmHg 55%
    06:00 +26°C° 0.2 mm 2 mps 666 mmHg 57%
    07:00 +26°C° 0.2 mm 2 mps 666 mmHg 58%
    08:00 +28°C° 0 mm 2 mps 667 mmHg 52%
    09:00 +30°C° 0 mm 3 mps 667 mmHg 46%
    10:00 +33°C° 0 mm 3 mps 667 mmHg 40%
    11:00 +34°C° 0 mm 3 mps 667 mmHg 36%
    12:00 +35°C° 0 mm 4 mps 667 mmHg 32%
    13:00 +36°C° 0 mm 4 mps 667 mmHg 28%
    14:00 +35°C° 0 mm 4 mps 666 mmHg 29%
    15:00 +35°C° 0 mm 3 mps 665 mmHg 29%
    16:00 +34°C° 0 mm 2 mps 665 mmHg 30%
    17:00 +32°C° 0 mm 2 mps 665 mmHg 31%
    18:00 +32°C° 0 mm 2 mps 664 mmHg 33%
    19:00 +31°C° 0 mm 1 mps 664 mmHg 35%
    20:00 +30°C° 0 mm 1 mps 665 mmHg 37%
    21:00 +29°C° 0 mm 1 mps 665 mmHg 40%
    22:00 +29°C° 0 mm 2 mps 666 mmHg 42%
    23:00 +28°C° 0 mm 2 mps 666 mmHg 46%

    Day after tomorrow, 20 January, Saturday

    Time Temperature Precipitation Wind Pressure Humidity
    00:00 +27°C° 0 mm 2 mps 665 mmHg 50%
    01:00 +26°C° 0 mm 3 mps 665 mmHg 54%
    02:00 +26°C° 0.1 mm 2 mps 665 mmHg 56%
    03:00 +26°C° 0.1 mm 2 mps 665 mmHg 58%
    04:00 +26°C° 0.1 mm 2 mps 665 mmHg 59%
    05:00 +26°C° 0 mm 2 mps 665 mmHg 60%
    06:00 +26°C° 0 mm 2 mps 665 mmHg 60%
    07:00 +26°C° 0 mm 2 mps 666 mmHg 60%
    08:00 +28°C° 0.1 mm 2 mps 666 mmHg 54%
    09:00 +30°C° 0.1 mm 2 mps 666 mmHg 48%
    10:00 +31°C° 0.1 mm 2 mps 667 mmHg 42%
    11:00 +32°C° 0 mm 2 mps 666 mmHg 39%
    12:00 +32°C° 0 mm 2 mps 666 mmHg 36%
    13:00 +34°C° 0 mm 2 mps 665 mmHg 34%
    14:00 +33°C° 0 mm 1 mps 665 mmHg 34%
    15:00 +33°C° 0 mm 1 mps 664 mmHg 34%
    16:00 +31°C° 0 mm 0 mps 664 mmHg 34%
    17:00 +32°C° 0 mm 1 mps 664 mmHg 35%
    18:00 +31°C° 0 mm 1 mps 664 mmHg 37%
    19:00 +30°C° 0 mm 1 mps 665 mmHg 39%
    20:00 +30°C° 0.1 mm 2 mps 665 mmHg 42%
    21:00 +29°C° 0.1 mm 2 mps 666 mmHg 45%
    22:00 +28°C° 0.1 mm 3 mps 666 mmHg 48%
    23:00 +27°C° 0.3 mm 3 mps 666 mmHg 55%

    21 January, Sunday

    Time Temperature Precipitation Wind Pressure Humidity
    00:00 +26°C° 0.3 mm 3 mps 665 mmHg 61%
    01:00 +23°C° 0.3 mm 4 mps 665 mmHg 68%
    02:00 +24°C° 0 mm 3 mps 665 mmHg 69%
    03:00 +24°C° 0 mm 3 mps 665 mmHg 70%
    04:00 +22°C° 0 mm 3 mps 664 mmHg 70%
    05:00 +22°C° 0 mm 3 mps 665 mmHg 69%
    06:00 +22°C° 0 mm 3 mps 665 mmHg 68%
    07:00 +24°C° 0 mm 2 mps 666 mmHg 66%
    08:00 +26°C° 0 mm 2 mps 667 mmHg 58%
    09:00 +28°C° 0 mm 2 mps 667 mmHg 49%
    10:00 +30°C° 0 mm 2 mps 668 mmHg 41%
    11:00 +31°C° 0 mm 1 mps 667 mmHg 38%
    12:00 +32°C° 0 mm 1 mps 667 mmHg 35%
    13:00 +34°C° 0 mm 1 mps 666 mmHg 32%
    14:00 +33°C° 0 mm 1 mps 666 mmHg 33%
    15:00 +32°C° 0 mm 2 mps 665 mmHg 35%
    16:00 +31°C° 0 mm 2 mps 665 mmHg 36%
    17:00 +30°C° 0 mm 2 mps 665 mmHg 41%
    18:00 +29°C° 0 mm 3 mps 665 mmHg 45%
    19:00 +28°C° 0 mm 4 mps 665 mmHg 50%
    20:00 +27°C° 0.3 mm 4 mps 665 mmHg 55%
    21:00 +26°C° 0.3 mm 4 mps 666 mmHg 61%
    22:00 +25°C° 0.3 mm 4 mps 666 mmHg 67%
    23:00 +25°C° 1 mm 4 mps 666 mmHg 67%

    22 January, Monday

    Time Temperature Precipitation Wind Pressure Humidity
    00:00 +25°C° 1 mm 3 mps 666 mmHg 67%
    01:00 +24°C° 1 mm 3 mps 666 mmHg 68%
    02:00 +24°C° 0.3 mm 3 mps 665 mmHg 68%
    03:00 +24°C° 0.3 mm 3 mps 665 mmHg 68%
    04:00 +23°C° 0.3 mm 2 mps 665 mmHg 69%
    05:00 +23°C° 0.3 mm 2 mps 666 mmHg 69%
    06:00 +23°C° 0.3 mm 2 mps 666 mmHg 69%
    07:00 +23°C° 0.3 mm 2 mps 667 mmHg 69%
    08:00 +24°C° 0.1 mm 2 mps 667 mmHg 61%
    09:00 +25°C° 0.1 mm 3 mps 667 mmHg 54%
    10:00 +26°C° 0.1 mm 3 mps 668 mmHg 47%
    11:00 +28°C° 0 mm 3 mps 668 mmHg 40%
    12:00 +30°C° 0 mm 3 mps 667 mmHg 34%
    13:00 +33°C° 0 mm 3 mps 667 mmHg 28%
    14:00 +33°C° 0 mm 3 mps 666 mmHg 28%
    15:00 +33°C° 0 mm 4 mps 666 mmHg 28%
    16:00 +33°C° 0 mm 4 mps 665 mmHg 28%
    17:00 +30°C° 0 mm 3 mps 665 mmHg 30%
    18:00 +29°C° 0 mm 3 mps 665 mmHg 33%
    19:00 +27°C° 0 mm 2 mps 665 mmHg 36%
    20:00 +26°C° 0 mm 2 mps 666 mmHg 38%
    21:00 +26°C° 0 mm 1 mps 666 mmHg 40%
    22:00 +25°C° 0 mm 1 mps 666 mmHg 42%
    23:00 +25°C° 0 mm 1 mps 666 mmHg 46%

    23 January, Tuesday

    Time Temperature Precipitation Wind Pressure Humidity
    00:00 +25°C° 0 mm 2 mps 666 mmHg 49%
    01:00 +24°C° 0 mm 2 mps 666 mmHg 53%
    02:00 +24°C° 0 mm 2 mps 665 mmHg 54%
    03:00 +24°C° 0 mm 2 mps 665 mmHg 54%
    04:00 +22°C° 0 mm 3 mps 665 mmHg 55%
    05:00 +23°C° 0 mm 2 mps 666 mmHg 53%
    06:00 +23°C° 0 mm 2 mps 666 mmHg 52%
    07:00 +24°C° 0 mm 2 mps 666 mmHg 50%
    08:00 +25°C° 0 mm 2 mps 667 mmHg 44%
    09:00 +27°C° 0 mm 2 mps 667 mmHg 38%
    10:00 +28°C° 0 mm 3 mps 667 mmHg 32%
    11:00 +30°C° 0 mm 2 mps 667 mmHg 29%
    12:00 +32°C° 0 mm 2 mps 666 mmHg 26%
    13:00 +35°C° 0 mm 2 mps 666 mmHg 23%
    14:00 +35°C° 0 mm 2 mps 666 mmHg 22%
    15:00 +34°C° 0 mm 1 mps 665 mmHg 22%
    16:00 +35°C° 0 mm 1 mps 665 mmHg 21%
    17:00 +33°C° 0 mm 1 mps 665 mmHg 24%
    18:00 +32°C° 0 mm 1 mps 665 mmHg 26%
    19:00 +29°C° 0 mm 0 mps 664 mmHg 28%
    20:00 +30°C° 0 mm 1 mps 665 mmHg 30%
    21:00 +30°C° 0 mm 1 mps 665 mmHg 31%
    22:00 +29°C° 0 mm 1 mps 665 mmHg 33%
    23:00 +28°C° 0 mm 2 mps 665 mmHg 37%
    Show more